Location: Goldmont Forest
(38.0233°N, 120.2524°W)
Time: 08:07:56
(UTC+00:00)

IRIDIUM 106 - Pass Details

Date: 10 November 2024
Orbit: 776 x 779 km, 86.4° (Epoch: 06 December)

Event Time Altitude Azimuth Distance (km) Brightness Sun altitude
Rises 03:14:38 0° 191° (S) 3,246 7.7 -28.0°
Reaches altitude 10° 03:17:01 10° 195° (SSW) 2,322 6.9 -28.5°
Maximum altitude 03:22:08 59° 274° (W) 895 4.8 -29.5°
Drops below altitude 10° 03:27:18 10° 354° (N) 2,336 6.9 -30.5°
Sets 03:29:42 0° 359° (N) 3,268 7.6 -31.0°
